Weather in Konoplyanka

Russia / Tambov Oblast     52°17′32″N   42°33′16″E
temp.,
°C
wind,
m/s
gust,
m/s
humid.,
%
clouds,
%
prec.,
mm/h
press.,
hPa
HPBL,
m
20 june, sun
sun2000:00+15se22840 0.0 102511
03:00+14ese11850 0.0 102511
06:00+17e22800 0.0 102587
09:00+22e23630 0.0 1024542
12:00+26ese34520 0.0 10241051
15:00+27ese34490 0.0 10231259
18:00+26ese24636 0.0 1022196
21:00+20e227715 0.0 102211
21 june, mon
mon2100:00+18e338268 0.0 102221
03:00+17e3386100 0.0 102230
06:00+19e258468 0.0 1023145
09:00+24ese3465100 0.0 1023432
12:00+28ese3353100 0.0 1022918
15:00+29ese3348100 0.0 10211343
18:00+27ese346565 0.0 1021190
21:00+21e337873 0.0 102118
22 june, tue
tue2200:00+20ese338610 0.0 102223
03:00+18e33891 0.0 102235
06:00+20e25840 0.0 1022143
09:00+26ese45651 0.0 1022515
12:00+29ese345074 0.0 10221416
15:00+30e334499 0.0 10211794
18:00+29e236011 0.0 1020127
21:00+23ese22732 0.0 102113
23 june, wed
wed2300:00+21e337465 0.0 102130
03:00+20e337868 0.0 102128
06:00+22e247854 0.0 1022112
09:00+27ese355711 0.0 1021418
12:00+30ese44475 0.0 1021970
15:00+31ese344558 0.0 10201466
18:00+30se236013 0.0 1020140
21:00+24sse226933 0.0 102011
24 june, thu
thu2400:00+22sse117040 0.0 102011
03:00+21ne127165 0.0 102111
06:00+23ne227368 0.0 102162
09:00+28ne226154 0.0 1021422
12:00+31ne234928 0.0 10201672
15:00+31nne344675 0.0 10202380
18:00+26e236889 0.1 102049
21:00+22nnw468092 1.0 102089